Wind_Speed
31 31 31 30 30 30 30 29 28 28 28 28 28 27 26 25 26 26 26 26 27 27 27 27 27 27 27 27 27 27 28 28 29 29 29 30 30 30 31 31 31 32 32
33 32 31 32 32 31 31 30 30 29 29 29 29 29 28 27 27 27 27 28 28 28 29 29 28 28 29 29 29 29 29 29 30 30 30 31 31 31 31 31 32 32 32
34 34 33 33 33 32 32 31 31 30 30 30 30 30 30 29 29 28 28 29 29 29 29 29 29 30 30 30 30 30 30 31 31 31 31 31 32 32 32 33 33 33 33
35 35 34 34 34 33 33 33 32 31 31 31 31 31 31 31 30 30 30 30 30 30 30 30 30 30 31 31 31 32 32 32 32 33 33 33 32 32 32 33 34 34 34
36 36 36 35 35 34 34 34 33 32 32 32 32 32 31 31 31 31 32 32 32 31 31 31 31 31 32 32 32 33 34 33 33 33 33 33 33 33 33 34 34 34 35
37 36 36 36 35 35 35 34 34 33 33 33 33 33 33 32 31 32 33 32 32 32 32 32 32 32 33 33 34 34 34 34 34 33 33 33 33 34 34 35 35 36 37
38 37 36 36 36 36 35 35 35 35 35 34 34 34 34 33 33 32 33 33 33 33 33 33 33 32 33 34 35 35 35 35 35 33 33 33 34 35 35 36 37 38 39
38 37 37 37 37 37 36 35 35 35 35 35 35 35 35 35 34 33 33 33 33 34 34 34 34 33 34 35 35 36 35 35 35 35 35 36 36 36 37 38 39 39 40
40 39 38 38 38 38 38 38 37 36 36 36 36 36 36 36 36 35 35 35 35 35 35 35 36 36 35 36 36 36 36 35 36 36 37 38 38 39 40 40 41 41 41
41 40 39 38 39 39 39 39 40 39 37 37 37 37 37 37 37 36 36 36 37 36 36 37 37 37 37 36 37 37 37 37 38 38 39 39 40 41 42 43 43 43 43
42 41 40 39 38 39 40 39 40 40 40 39 39 39 39 38 38 38 37 37 38 38 38 39 39 39 38 38 39 39 38 39 40 40 41 41 42 43 43 44 44 44 44
41 40 40 40 39 39 40 39 40 40 40 41 41 40 40 40 39 39 38 38 38 38 38 38 39 40 40 40 40 40 40 41 41 42 43 43 44 44 45 45 45 44 45
41 41 40 40 39 40 40 39 39 40 41 41 41 41 41 41 41 40 40 40 40 40 40 40 40 41 41 42 41 41 42 42 43 44 44 45 45 45 45 45 45 45 45
41 40 40 40 39 39 40 40 39 39 39 39 40 41 42 42 41 41 41 41 41 41 41 41 41 42 42 42 42 42 43 43 44 44 45 46 46 46 45 45 45 44 44
41 41 40 40 39 39 40 41 41 40 39 39 40 41 41 41 41 41 42 42 42 42 42 42 42 42 43 43 43 44 44 45 45 45 45 45 46 46 45 44 44 43 42
41 41 40 40 39 38 39 39 39 39 39 40 40 41 42 42 42 42 42 43 43 43 43 43 43 42 43 43 43 43 44 45 46 46 46 46 45 45 44 43 43 42 42
39 40 40 39 40 40 39 39 38 39 39 40 41 40 40 41 41 42 43 43 43 43 43 42 43 43 44 44 45 45 46 46 46 46 46 45 45 44 43 42 42 42 42
37 38 38 38 39 39 39 39 39 39 40 40 41 40 40 40 41 42 43 43 43 43 43 43 43 44 44 44 45 46 46 47 47 46 45 44 44 43 43 43 43 42 42
37 37 38 37 38 39 39 39 39 39 39 40 40 40 40 40 41 42 42 43 43 42 42 43 43 43 43 44 44 44 44 45 45 44 43 43 43 43 43 42 42 42 43
36 37 37 37 37 38 40 39 39 39 38 37 38 39 39 40 41 41 41 42 41 41 41 42 42 42 43 43 43 43 42 42 42 42 42 42 42 41 41 42 42 43 43
37 37 37 37 37 38 39 39 39 38 39 38 38 38 39 40 41 41 41 41 41 40 41 41 41 41 42 43 43 42 42 42 41 41 41 40 40 40 40 41 41 41 41
36 37 37 37 38 38 39 39 39 39 40 40 39 40 41 41 41 41 41 40 40 40 40 41 41 41 41 41 42 42 42 41 41 40 40 40 40 39 39 39 39 39 39
36 37 38 38 38 38 39 39 40 40 41 41 41 41 42 42 41 41 41 40 40 40 40 40 39 40 40 40 41 41 41 40 40 39 39 38 38 37 37 37 37 37 37
36 36 36 38 38 38 39 39 40 41 41 42 42 42 42 42 41 41 41 41 40 40 40 40 39 39 39 39 39 40 39 39 38 37 37 36 36 36 36 35 35 35 35
37 37 37 38 39 39 39 40 41 41 41 42 43 43 42 41 41 41 41 40 40 39 39 39 38 37 37 37 38 38 37 37 36 35 35 35 34 35 35 34 33 33 33
37 37 37 37 38 39 40 40 41 41 42 42 42 42 41 40 39 40 40 40 39 39 39 38 38 37 36 36 36 36 36 36 36 34 33 33 33 33 33 32 32 32 32
Wind_Direction
255 256 256 257 259 261 260 261 262 261 261 260 259 259 260 260 262 263 264 265 267 268 269 270 272 273 273 274 276 277 279 279 280 281 282 284 284 285 285 285 285 284 284
255 256 257 257 258 260 259 259 260 260 260 259 259 259 260 261 262 263 264 265 266 268 269 270 271 272 273 275 276 277 278 279 281 282 284 284 285 285 285 285 285 285 285
255 257 257 257 258 259 258 259 259 259 259 259 259 260 260 262 263 264 265 267 267 268 269 269 270 272 273 275 277 277 278 279 282 282 283 284 284 284 285 286 286 287 287
255 257 257 257 257 258 258 258 258 259 259 259 259 260 261 263 264 265 266 267 268 270 271 270 271 272 273 274 277 278 277 280 281 282 283 283 284 285 285 286 288 288 288
254 256 256 256 256 257 258 258 258 259 259 260 259 259 261 263 264 265 267 268 269 270 271 271 272 273 274 275 277 277 277 279 280 282 282 282 283 284 285 286 287 288 288
255 256 257 257 257 257 258 258 258 259 259 259 259 259 260 263 264 266 267 268 269 270 271 271 272 273 274 275 277 278 278 279 280 280 281 281 282 283 284 286 287 287 288
255 258 259 259 258 257 258 257 259 259 259 259 259 259 260 262 265 266 267 268 269 270 271 271 272 274 275 276 277 278 278 279 280 280 281 281 283 283 285 287 287 287 288
255 257 259 259 258 257 257 257 258 258 258 258 259 260 261 261 264 266 267 268 269 270 270 271 271 275 276 276 278 278 278 278 279 280 281 283 284 285 286 288 288 288 288
254 256 258 259 259 258 257 256 257 258 258 258 258 260 261 262 262 266 268 269 270 270 271 271 273 275 276 276 277 278 278 279 279 280 282 284 285 286 287 288 289 290 290
254 254 256 257 258 258 256 256 257 258 259 258 259 260 261 263 264 266 267 269 269 270 272 273 275 275 276 276 277 279 279 278 279 281 283 284 285 287 288 288 289 290 291
254 255 255 257 257 257 257 256 257 258 258 259 259 260 261 262 264 266 266 267 268 270 273 274 275 275 276 277 277 279 279 279 281 282 284 285 285 287 288 288 289 290 291
255 256 256 257 257 257 257 256 257 257 258 259 260 260 261 263 264 265 266 266 268 270 272 274 275 276 277 278 279 279 278 280 281 283 284 285 286 287 287 288 288 289 290
255 255 256 256 256 256 256 257 258 258 258 258 259 260 261 262 263 265 266 267 268 270 272 274 275 276 277 279 279 280 280 281 282 283 285 286 287 287 287 287 287 288 288
255 255 255 256 256 256 257 257 258 259 258 258 259 260 261 261 262 264 266 268 269 271 273 274 275 276 276 278 278 279 280 281 283 284 286 286 287 287 287 287 287 287 287
253 255 256 257 258 258 257 258 258 259 259 259 259 260 261 261 263 265 267 268 270 272 273 274 275 276 276 277 278 279 279 281 282 284 284 285 286 286 286 286 287 287 286
252 254 256 257 258 258 259 260 259 259 259 260 261 262 261 261 263 265 267 268 270 272 273 274 275 276 278 278 278 280 281 282 282 284 284 284 286 285 286 286 286 286 286
252 254 255 256 257 258 258 258 258 259 260 261 262 262 262 262 263 265 267 268 269 271 273 274 275 277 278 278 278 279 281 282 283 285 285 284 285 285 285 286 286 286 287
252 254 254 256 258 257 257 257 259 260 261 261 261 261 262 262 264 265 267 268 269 271 273 274 275 276 278 278 279 280 281 283 284 284 284 284 285 285 285 285 286 286 287
253 254 255 256 256 256 256 258 258 259 260 261 261 261 261 263 264 265 267 269 270 271 273 274 275 276 277 278 279 281 282 282 283 284 284 284 283 284 284 285 285 285 286
254 255 255 255 256 257 257 257 258 258 259 260 260 262 262 264 265 266 268 269 271 272 273 274 275 276 277 278 279 281 283 283 284 284 284 284 284 284 284 284 285 286 286
254 254 255 255 256 258 257 257 258 259 259 260 262 263 264 264 266 267 268 269 271 273 273 274 275 276 277 278 279 281 283 284 284 285 285 285 284 283 283 284 285 285 286
252 255 256 256 257 258 258 257 258 260 260 262 263 264 265 266 267 268 269 269 270 272 273 274 275 277 278 279 280 281 283 285 285 285 286 286 285 285 284 284 285 286 287
254 255 256 257 257 257 258 258 259 260 261 263 264 265 265 266 267 268 268 269 270 271 272 274 276 277 278 279 280 282 283 284 285 284 284 285 285 286 286 286 287 287 287
254 256 257 258 259 260 261 261 261 262 262 263 264 265 266 267 267 268 268 269 270 271 273 274 275 277 278 279 280 281 283 283 284 283 283 284 285 285 285 285 287 288 288
255 256 258 259 260 260 261 261 261 262 263 263 264 265 267 267 266 267 268 269 271 272 272 272 274 276 278 280 280 281 282 283 283 283 284 285 286 286 286 286 287 288 288
257 258 259 261 261 261 262 262 263 263 263 263 263 264 265 265 265 266 267 268 270 271 272 272 274 275 278 280 280 281 281 282 283 283 284 285 286 286 285 286 287 287 288
Height
5799 5800 5801 5802 5802 5802 5803 5803 5803 5803 5803 5803 5804 5804 5805 5805 5806 5806 5806 5806 5806 5806 5806 5806 5806 5806 5806 5805 5805 5804 5803 5802 5801 5800 5798 5797 5795 5793 5792 5790 5788 5786 5784
5792 5793 5794 5795 5795 5796 5796 5796 5797 5797 5797 5797 5798 5798 5799 5799 5800 5800 5801 5801 5801 5801 5801 5800 5800 5800 5800 5799 5799 5798 5797 5796 5795 5793 5792 5790 5789 5787 5785 5783 5781 5779 5777
5785 5786 5787 5788 5788 5788 5789 5789 5790 5790 5790 5791 5791 5792 5793 5793 5794 5794 5795 5795 5795 5794 5794 5794 5794 5794 5794 5793 5792 5792 5791 5790 5788 5787 5785 5783 5782 5780 5777 5775 5774 5771 5769
5777 5778 5779 5780 5781 5781 5781 5782 5782 5783 5783 5784 5784 5785 5786 5787 5787 5788 5788 5788 5788 5788 5788 5788 5788 5787 5787 5786 5786 5785 5784 5782 5781 5779 5777 5776 5774 5772 5770 5768 5766 5763 5761
5769 5770 5772 5772 5773 5773 5774 5774 5775 5776 5776 5777 5777 5778 5779 5780 5780 5781 5781 5781 5781 5781 5781 5781 5781 5781 5780 5779 5779 5777 5776 5775 5773 5771 5769 5768 5766 5764 5762 5760 5758 5755 5753
5761 5762 5763 5764 5765 5766 5766 5767 5768 5768 5769 5769 5770 5771 5772 5773 5773 5774 5774 5774 5774 5774 5774 5774 5774 5773 5772 5772 5771 5770 5768 5767 5765 5763 5762 5760 5759 5757 5755 5752 5750 5747 5745
5752 5753 5755 5756 5757 5757 5758 5759 5759 5760 5761 5762 5763 5763 5764 5765 5766 5766 5766 5766 5766 5766 5766 5766 5766 5765 5765 5764 5763 5762 5760 5759 5757 5756 5754 5752 5751 5749 5746 5744 5741 5739 5736
5743 5744 5746 5747 5748 5749 5750 5750 5751 5752 5753 5754 5755 5755 5757 5758 5758 5758 5758 5758 5758 5758 5758 5759 5758 5757 5757 5756 5755 5754 5752 5751 5749 5748 5746 5744 5742 5740 5738 5735 5732 5730 5727
5734 5735 5736 5738 5739 5740 5741 5742 5743 5744 5744 5745 5746 5747 5748 5750 5750 5750 5750 5750 5750 5750 5750 5750 5750 5749 5748 5748 5747 5746 5744 5743 5741 5740 5738 5736 5733 5731 5729 5726 5723 5720 5717
5724 5726 5727 5728 5730 5730 5731 5732 5733 5734 5736 5737 5738 5739 5740 5741 5741 5742 5742 5742 5741 5742 5742 5742 5741 5741 5740 5739 5738 5737 5736 5734 5733 5731 5729 5726 5724 5722 5719 5716 5713 5710 5707
5714 5716 5717 5719 5720 5721 5722 5723 5724 5725 5727 5728 5729 5730 5731 5731 5732 5733 5734 5734 5733 5733 5733 5733 5732 5731 5731 5730 5729 5728 5726 5725 5723 5721 5719 5717 5714 5712 5709 5706 5703 5699 5696
5703 5705 5707 5708 5710 5711 5712 5713 5714 5715 5717 5718 5719 5720 5721 5722 5723 5723 5724 5725 5725 5725 5724 5723 5723 5722 5721 5720 5719 5718 5716 5715 5713 5711 5709 5707 5704 5701 5698 5695 5692 5689 5686
5693 5695 5697 5698 5700 5701 5702 5703 5705 5705 5706 5708 5709 5710 5711 5712 5713 5714 5714 5715 5715 5715 5714 5714 5713 5712 5711 5710 5709 5708 5706 5704 5702 5700 5698 5696 5693 5690 5687 5684 5681 5678 5675
5683 5685 5686 5688 5690 5691 5692 5693 5695 5696 5696 5698 5699 5700 5701 5702 5702 5703 5704 5704 5704 5705 5704 5704 5703 5702 5701 5700 5698 5697 5695 5693 5691 5689 5687 5684 5682 5679 5676 5673 5670 5667 5664
5672 5674 5676 5677 5679 5681 5682 5683 5685 5686 5687 5688 5689 5689 5690 5691 5691 5692 5693 5693 5694 5694 5694 5694 5693 5691 5690 5688 5687 5685 5684 5682 5680 5678 5675 5673 5670 5667 5664 5662 5659 5656 5653
5661 5664 5665 5667 5669 5670 5672 5673 5674 5675 5676 5678 5678 5678 5679 5680 5681 5681 5682 5682 5682 5682 5682 5683 5681 5680 5678 5677 5675 5674 5672 5670 5668 5666 5663 5661 5658 5655 5653 5650 5648 5645 5643
5651 5653 5655 5657 5659 5660 5662 5663 5664 5666 5666 5667 5667 5668 5669 5669 5670 5671 5671 5671 5671 5671 5671 5671 5670 5668 5666 5664 5663 5661 5660 5658 5656 5653 5651 5648 5646 5643 5641 5639 5637 5635 5632
5641 5643 5645 5647 5648 5650 5652 5653 5654 5655 5656 5657 5657 5658 5658 5659 5659 5660 5660 5660 5660 5659 5659 5659 5658 5656 5655 5653 5651 5649 5647 5645 5643 5641 5639 5636 5634 5632 5630 5628 5625 5623 5621
5632 5634 5635 5637 5639 5640 5641 5643 5644 5645 5646 5646 5646 5647 5647 5648 5648 5649 5648 5648 5648 5648 5647 5647 5646 5645 5643 5641 5639 5637 5634 5632 5630 5628 5626 5624 5622 5620 5618 5616 5614 5612 5609
5622 5624 5626 5627 5629 5630 5631 5633 5634 5635 5635 5636 5636 5637 5637 5637 5638 5638 5637 5637 5636 5636 5635 5635 5634 5633 5631 5629 5627 5625 5623 5620 5618 5616 5614 5613 5611 5609 5607 5605 5603 5600 5598
5612 5614 5616 5617 5619 5620 5621 5622 5624 5624 5625 5626 5626 5626 5626 5627 5626 5626 5626 5626 5625 5625 5624 5623 5623 5621 5620 5617 5615 5613 5611 5609 5607 5605 5603 5601 5599 5598 5596 5594 5591 5589 5586
5602 5604 5606 5607 5609 5610 5611 5612 5613 5614 5615 5615 5616 5616 5616 5616 5616 5615 5615 5615 5614 5614 5613 5613 5612 5610 5608 5606 5604 5602 5600 5598 5597 5595 5592 5590 5588 5587 5585 5583 5581 5578 5576
5593 5594 5596 5597 5598 5599 5600 5601 5602 5603 5603 5604 5605 5605 5605 5604 5604 5604 5604 5604 5603 5603 5602 5601 5600 5599 5597 5596 5594 5592 5589 5587 5586 5584 5582 5580 5578 5576 5574 5572 5570 5568 5566
5583 5584 5585 5586 5587 5589 5590 5590 5591 5592 5592 5593 5593 5593 5593 5593 5592 5593 5593 5593 5592 5592 5591 5591 5590 5589 5587 5585 5583 5581 5579 5578 5576 5574 5572 5571 5568 5566 5564 5563 5561 5558 5556
5572 5574 5575 5576 5577 5578 5579 5579 5580 5580 5581 5581 5581 5581 5581 5582 5582 5582 5582 5582 5582 5581 5580 5580 5579 5578 5576 5574 5573 5571 5570 5568 5567 5565 5563 5561 5559 5557 5555 5553 5551 5549 5547
5562 5563 5564 5565 5566 5567 5567 5568 5568 5569 5569 5570 5570 5570 5570 5570 5570 5570 5570 5571 5571 5571 5570 5569 5568 5568 5566 5565 5563 5561 5560 5558 5557 5556 5554 5552 5550 5548 5546 5545 5543 5540 5538